Find Starlink 5145

NORAD ID: 54008 Int'l Des: 2022-125 Owner: SPXS Country: US Constellation: starlink operational
LEOCIRCULAR

Live Position

Loading 3D Globe...

About Starlink 5145

Description loading...

Upcoming Passes

Passes for default location (London). Set your location on the main map for personalized predictions.

Altitude History

Loading altitude history...

Two-Line Element Set

1 54008U 22125AW 26106.08645958 -.00000036 00000-0 15855-4 0 9997
2 54008 53.2187 35.8813 0001466 87.8724 272.2436 15.08842602195250
Epoch: Apr 16, 2026 • Age: 29 hours

Current Status

Altitude 541.4 km
Velocity 7.60 km/s
Sub-Earth Point 34.18°N, 134.68°W
Launch Date Oct 5, 2022
Age 3.5 years
Type internet

Technical Details

Classification Payload
Mass 305.00 kg
Dry Mass 290.00 kg
Total Mass 305.00 kg
Length 0.20 m
Diameter 2.80 m
Span 9.00 m
Shape Box + pan
Manufacturer SPXS
Bus Type Starlink
Phase Status In Orbit
Owner/State SPXS/US

Most Searched